Погода Боковская

Погода Боковская : погода сейчас, прогноз погоды и архив. Всё, что Вы хотите узнать о погоде Боковская!

Хотите узнать прогноз погоды Боковская? Тогда Вам сюда: Погода Боковская

Поиск расширенной информации на нашем сайте:

Другие новости

Новости СМИ2

Главная страница сайта

Новости сайта

03.07.2017

Напоминаем, что на нашем специализированном сайте Метеоцентр.Азия вы можете получить высокодетализированные автоматические прогнозы погоды по пунктам России, СНГ и мира в авиационном формате (включающие направление и скорость ветра, видимость, явления погоды, количество и форму облачности, нижнюю и верхнюю границу облачности).

Рекомендуем: Tom Ford Amber Absolute парфюм

Погода Боковская - сегодня

Время (UTC), дата Ветер
(°,м/с) 
Видим.   Явления Облачность Т
(°С)
Тd
(°С)
f(%) Тe
(°С)
Pmin
(гПа)
dP
(гПа)
Po
(мм)
O2
(г/м3)
Тmin Tmax R s Состояние
почвы
09 16.08.18 120 (ЮВ) 20000 м    ясно 
+32.3 +9.4 24 +33  1016.7  -0.7  755  270           
12 16.08.18 140 (ЮВ) 20000 м    1/1 1000 м 
[Cu hum]
+34.4 +6.7 18 +34  1015.3  -1.3  754  269           
15 16.08.18 160 (Ю) 20000 м    ясно 
+33.3 +6.4 19 +33  1014.5  -0.8  753  270    +34.7       
18 16.08.18 030 (СВ) 20000 м    ясно 
+22.8 +9.7 43 +23  1015.6  0.7  754  279           
21 16.08.18 тихо ()   20000 м    ясно 
+16.8 +10.7 67 +19  1016  0.2  754  284           
00 17.08.18 290 (З) 20000 м    ясно 
+13.7 +9.5 76 +15  1015.9  -0.2  754  287           
03 17.08.18 280 (З) 20000 м    ясно 
+12.7 +9.1 79 +14  1016.4  0.4  754  289  +11.2        частично
покрыта
пылью 
06 17.08.18 300 (СЗ) 20000 м    ясно 
+26.2 +9.6 35 +27  1015.8  754  276           
09 17.08.18 300 (СЗ) 20000 м    ясно 
+32.9 +9.2 23 +33  1014.5  -1.1  753  269           
12 17.08.18 030 (СВ) 20000 м    4/3 1000 м верхняя 
[Cu med, cong|Ci fib]
+33.4 +10.3 24 +35  1013.8  -0.6  753  268           
15 17.08.18 010 (С) 20000 м    5/1 1000 м средняя, верхняя 
[Cu med, cong|Ac cuf|Ci fib]
+30.2 +11.1 31 +33  1013.9  753  271    +33.8       
18 17.08.18 040 (СВ) 4{11}  20000 м    5/3 600 м кучево-дожд., средняя, верхняя 
[Cb cap|Ac As|Ci fib]
+24.5 +14 52 +31  1015.3  1.2  754  276           
21 17.08.18 030 (СВ) 20000 м    ясно 
+21.3 +14.9 67 +30  1015.6  0.2  754  279           
00 18.08.18 040 (СВ) 20000 м    ясно 
+18.7 +14.9 79 +28  1016.2  0.2  754  281           
03 18.08.18 030 (СВ) 20000 м    6/5 600 м кучево-дожд., средняя 
[Cb cap|Ac As]
+18 +13 73 +24  1017.2  755  283  +17.5        частично
покрыта
пылью 
06 18.08.18 060 (СВ) 5{10}  20000 м    ясно 
+21.7 +11.4 52 +25  1017.9  0.9  755  280           
09 18.08.18 050 (СВ) 5-11{11}  20000 м    8/8 600 м 
[Cu hum]
+25.2 +10.6 40 +27  1017.6  0.9  755  277           
12 18.08.18 040 (СВ) 5-11{12}  20000 м  пыльная буря  ясно 
+26.5 +7.1 29 +27  1017.5  0.1  755  276           
15 18.08.18 060 (СВ) 5{11}  20000 м    ясно 
+24.6 +4.2 27 +25  1017.8  0.2  755  279    +26.6       
18 18.08.18 030 (СВ) 20000 м    ясно 
+18.5 +4.8 40 +20  1019.6  1.6  757  285           
21 18.08.18 260 (З) 20000 м    ясно 
+13.6 +5.2 57 +15  1020.3  0.5  757  290           
00 19.08.18 330 (СЗ) 20000 м    ясно 
+12 +5.1 63 +13  1021.1  0.7  757  292           
03 19.08.18 280 (З) 20000 м    ясно 
+9.7 +5.3 74 +11  1021.9  0.7  758  294  +8        частично
покрыта
пылью 
06 19.08.18 100 (В) 20000 м    ясно 
+21.3 +7.2 40 +21  1022  0.6  758  282           
09 19.08.18 060 (СВ) 20000 м    ясно 
+24.7 +5.3 29 +25  1021.1  -0.8  758  279           
Время (UTC), дата Ветер
(°,м/с) 
Видим.   Явления Облачность Т
(°С)
Тd
(°С)
f(%) Тe
(°С)
Pmin
(гПа)
dP
(гПа)
Po
(мм)
O2
(г/м3)
Тmin Tmax R s Состояние
почвы

Для получения пояснительной информации подведите курсор к названию столбца.

ПОГОДА Боковская - архив

Всё, что Вы хотите узнать о погоде Боковская - удобно и подробно!

Выберите нужную дату (начиная с 1 января 2015* года) и нажмите кнопку "Найти".
Будут отображены архивные сводки погоды по пункту Боковская, начиная с указанной даты.


Отображать данные в формате CSV (для использования в таблицах Excel)


Внимание! Наш архив погоды предназначен исключительно для личного некоммерческого использования в познавательных целях. Если Вам необходимы официальные справки о состоянии погоды (для производственных, юридических, коммерческих и т.п. целей), обращайтесь в органы Росгидромета.

*Примечание: данная дата относится к архиву по метеостанциям СССР (Россия, СНГ, Балтия).
Архив по метеостанциям Зарубежной Европы и Азии (кроме Китая) хранится 10 дней, по другим регионам земного шара (Китай, Африка, Америка, Австралия, Океания) - 1 день.

Боковская - район местоположения метеостанции


Название, широта, долгота, высота метеостанции:
Боковская 49.2°ш. 41.8°д. 91 м над ур. моря [Российская Федерация]

Дополнительная информация

В oтличие oт бoльшинства пoгoдных сайтoв мы публикуем пoдрoбную метеoинфoрмацию в детальнoм прoфессиoнальнoм фoрмате.

Характеристики температуры и влажнoсти вoздуха измеряются на высoте 2 м в тени вдали oт зданий и деревьев.
Скoрoсть ветра измеряется на высoте 10 м (на урoвне рoста челoвека скoрoсть ветра ниже в 1.5-2 раза). Если метеoстанция нахoдится в гoрoде или в лесу, тo скoрoсть ветра занижена на 2-4 м/с пo сравнению с oткрытым местoм. Скoрoсть ветра над акватoриями крупных рек и oзёр, а также на вершинах хoлмoв на 2-5 м/с выше, чем в oбычных услoвиях.
Атмoсфернoе давление в разных тoчках местнoсти мoжет значительнo oтличаться oт давления на метеoстанции, в зависимoсти oт услoвий рельефа (при пoдъёме на 10 м давление пoнижается примернo на 1 мм рт.ст.).